This demonstration page uses our WeatherBlox Daily Observations layout. Learn more.

Hourly Observations for January 6, 2019

Temp ( °F °C ) Dew Point ( °F °C ) Humidity (%) Winds ( mph kmh ) Pressure ( in mb ) Visibility ( mi km ) Precip ( " mm )
12:15 am 00:15 Clear 36 2.1 35 1.5 96 96 E 8 13 30.03 1017 10 16.0934 0 0
12:35 am 00:35 Clear 37 2.5 35 1.6 94 94 E 9 15 30 1016 10 16.0934 0 0
12:55 am 00:55 Clear 36 2.2 35 1.5 95 95 E 9 15 29.97 1015 10 16.0934 0 0
1:15 am 01:15 Clear 37 2.8 35 1.5 91 91 E 10 17 29.97 1015 10 16.0934 0 0
1:35 am 01:35 Clear 37 2.7 35 1.5 92 92 E 10 17 29.97 1015 10 16.0934 0 0
1:55 am 01:55 Clear 36 2.4 35 1.4 93 93 E 10 17 29.97 1015 10 16.0934 0 0
2:15 am 02:15 Clear 35 1.5 34 1 97 97 ENE 5 7 30 1016 10 16.0934 0 0
2:35 am 02:35 Clear 36 2 34 1.3 95 95 E 12 19 29.94 1014 10 16.0934 0 0
2:55 am 02:55 Clear 35 1.8 34 1.2 96 96 E 9 15 29.94 1014 10 16.0934 0 0
3:15 am 03:15 Clear 36 2 34 1.1 94 94 E 8 13 29.94 1014 10 16.0934 0 0
3:35 am 03:35 Clear 35 1.6 34 1 96 96 E 10 17 29.91 1013 10 16.0934 0 0
3:55 am 03:55 Clear 35 1.7 34 1 95 95 E 9 15 29.88 1012 10 16.0934 0 0
4:15 am 04:15 Clear 35 1.7 34 1 95 95 E 12 19 29.88 1012 10 16.0934 0 0
4:35 am 04:35 Clear 35 1.7 34 1 95 95 E 8 13 29.88 1012 10 16.0934 0 0
4:55 am 04:55 Clear 35 1.5 34 1 97 97 E 6 9 29.85 1011 10 16.0934 0 0
5:15 am 05:15 Clear 34 1.3 33 0.8 97 97 ENE 5 7 29.85 1011 10 16.0934 0 0
5:35 am 05:35 Clear 35 1.5 34 1 97 97 E 7 11 29.85 1011 10 16.0934 0 0
5:55 am 05:55 Clear 35 1.4 33 0.8 96 96 E 9 15 29.85 1011 10 16.0934 0 0
6:15 am 06:15 Clear 34 1.3 33 0.8 97 97 E 12 19 29.83 1010 10 16.0934 0 0
6:35 am 06:35 Clear 34 1 33 0.5 97 97 E 8 13 29.83 1010 10 16.0934 0 0
6:55 am 06:55 Clear 34 1.2 33 0.8 97 97 E 7 11 29.83 1010 10 16.0934 0 0
7:15 am 07:15 Clear 34 1 33 0.5 97 97 E 6 9 29.83 1010 10 16.0934 0 0
7:35 am 07:35 Clear 33 0.8 33 0.6 99 99 E 5 7 29.83 1010 10 16.0934 0 0
7:55 am 07:55 Clear 33 0.5 32 0.2 98 98 Calm 29.83 1010 10 16.0934 0 0
8:15 am 08:15 Sunny 32 0.1 32 0.1 100 100 ENE 6 9 29.83 1010 7 11.26538 0 0
8:35 am 08:35 Sunny 33 0.5 33 0.5 100 100 NE 6 9 29.77 1008 7 11.26538 0 0
8:55 am 08:55 Sunny 33 0.8 33 0.7 99 99 E 3 6 29.8 1009 10 16.0934 0 0
9:15 am 09:15 Sunny 33 0.7 33 0.7 100 100 Calm 29.8 1009 7 11.26538 0 0
9:35 am 09:35 Sunny 33 0.8 33 0.8 100 100 ENE 3 6 29.8 1009 7 11.26538 0 0
9:55 am 09:55 Sunny 34 1.1 34 1.1 100 100 Calm 29.8 1009 10 16.0934 0 0
10:15 am 10:15 Sunny 35 1.5 35 1.5 100 100 E 6 9 29.77 1008 10 16.0934 0 0
10:35 am 10:35 Sunny 35 1.7 35 1.5 99 99 E 5 7 29.77 1008 10 16.0934 0 0
10:55 am 10:55 Sunny 36 2.2 35 1.8 97 97 Calm 29.77 1008 10 16.0934 0 0
11:15 am 11:15 Sunny 36 2.4 36 2 97 97 Calm 29.74 1007 10 16.0934 0 0
11:35 am 11:35 Sunny 37 2.6 36 2.1 97 97 Calm 29.74 1007 10 16.0934 0 0
11:55 am 11:55 Sunny 37 3 37 2.5 97 97 Calm 29.68 1005 10 16.0934 0 0
12:15 pm 12:15 Sunny 38 3.2 37 2.7 97 97 Calm 29.65 1004 10 16.0934 0 0
12:35 pm 12:35 Sunny 39 3.7 37 3 95 95 SSE 3 6 29.65 1004 10 16.0934 0 0
12:55 pm 12:55 Sunny 39 3.7 37 2.8 94 94 S 5 7 29.65 1004 10 16.0934 0 0
1:15 pm 13:15 Sunny 39 3.9 37 2.8 93 93 S 8 13 29.62 1003 10 16.0934 0 0
1:35 pm 13:35 Sunny 39 4.1 37 3 93 93 SSW 5 7 29.62 1003 10 16.0934 0 0
1:55 pm 13:55 Partly Cloudy 39 4.1 37 3 93 93 SW 5 7 29.62 1003 10 16.0934 0 0
2:15 pm 14:15 Mostly Cloudy 39 4 37 3 93 93 WSW 6 9 29.62 1003 10 16.0934 0 0
2:35 pm 14:35 Cloudy 40 4.4 38 3.3 93 93 WSW 5 7 29.62 1003 10 16.0934 0 0
2:55 pm 14:55 Cloudy 40 4.4 38 3.2 92 92 W 6 9 29.62 1003 10 16.0934 0 0
3:15 pm 15:15 Cloudy 39 4.1 37 3 93 93 W 5 7 29.62 1003 10 16.0934 0 0
3:35 pm 15:35 Cloudy 38 3.5 37 2.7 95 95 WSW 5 7 29.65 1004 10 16.0934 0 0
3:55 pm 15:55 Cloudy 38 3.3 37 2.5 95 95 WSW 3 6 29.65 1004 10 16.0934 0 0
4:15 pm 16:15 Cloudy 38 3.1 37 2.5 96 96 W 6 9 29.65 1004 10 16.0934 0 0
4:35 pm 16:35 Cloudy 38 3.2 37 2.5 95 95 SSW 6 9 29.65 1004 10 16.0934 0 0
4:55 pm 16:55 Cloudy 37 3 36 2.3 95 95 SSW 5 7 29.65 1004 7 11.26538 0 0
5:15 pm 17:15 Partly Cloudy 37 2.5 36 2 97 97 WSW 3 6 29.65 1004 7 11.26538 0 0
5:35 pm 17:35 Clear 36 2.3 35 1.9 97 97 SW 3 6 29.65 1004 7 11.26538 0 0
5:55 pm 17:55 Clear 36 2 35 1.7 98 98 WSW 3 6 29.68 1005 7 11.26538 0 0
6:15 pm 18:15 Clear 36 2 35 1.8 99 99 WSW 3 6 29.68 1005 7 11.26538 0 0
6:35 pm 18:35 Clear 36 2.1 35 1.9 99 99 SW 5 7 29.68 1005 7 11.26538 0 0
6:55 pm 18:55 Clear 36 2.2 35 1.8 97 97 SW 5 7 29.65 1004 7 11.26538 0 0
7:15 pm 19:15 Clear 35 1.7 35 1.5 99 99 SW 5 7 29.65 1004 7 11.26538 0 0
7:35 pm 19:35 Clear 36 2 35 1.6 97 97 WSW 6 9 29.62 1003 7 11.26538 0 0
7:55 pm 19:55 Clear 36 2 35 1.6 97 97 WSW 5 7 29.62 1003 7 11.26538 0 0
8:15 pm 20:15 Clear 36 2 35 1.5 97 97 WSW 3 6 29.62 1003 7 11.26538 0 0
8:35 pm 20:35 Clear 35 1.7 34 1.3 97 97 WSW 3 6 29.65 1004 7 11.26538 0 0
8:55 pm 20:55 Clear 36 2 35 1.6 97 97 WSW 3 6 29.62 1003 7 11.26538 0 0
9:15 pm 21:15 Partly Cloudy 35 1.7 35 1.5 99 99 Calm 29.68 1005 7 11.26538 0 0
9:35 pm 21:35 Partly Cloudy 35 1.7 35 1.4 98 98 Calm 29.65 1004 7 11.26538 0 0
9:55 pm 21:55 Partly Cloudy 35 1.5 34 1.2 98 98 SW 7 11 29.68 1005 7 11.26538 0 0
10:15 pm 22:15 Partly Cloudy 35 1.6 35 1.4 99 99 W 3 6 29.68 1005 7 11.26538 0 0
10:35 pm 22:35 Mostly Cloudy 36 2.1 35 1.8 98 98 WNW 6 9 29.68 1005 7 11.26538 0 0
10:55 pm 22:55 Mostly Cloudy 35 1.9 34 1.3 96 96 WNW 3 6 29.68 1005 7 11.26538 0 0
11:15 pm 23:15 Mostly Cloudy 35 1.7 35 1.5 99 99 SSW 3 6 29.68 1005 7 11.26538 0 0
11:35 pm 23:35 Cloudy 36 2.3 36 2 98 98 WNW 5 7 29.65 1004 7 11.26538 0 0
11:55 pm 23:55 Cloudy 37 2.5 36 2 97 97 WNW 8 13 29.65 1004 10 16.0934 0 0

Powered by AerisWeather